Date String (YYYY-MM-DD hh:mm:ss) UTC,Instrument flags,absolute air pressure of the measurement (hPa),sample flow rate (lpm),inlet stack bypass flow (lpm),air temperature of the measurement (°C),ambient temperature measured by the external sensor (°C),aerosol sample conditioner tube jacket temperature (°C),OPC LED temperature (°C),internal box temperature (°C),relative humidity of the measurement (%),span deviation,mass concentration of particles derived from Lorenz-Mie calculation of OPC scattering (μg/m³),mass concentration of particles derived from Lorenz-Mie calculation of OPC scattering (μg/m³),mass concentration of particles derived from Lorenz-Mie calculation of OPC scattering (μg/m³)
DateTimeUTC,F1_M11,P_M11,Q1_M11,Q2_M11,T1_M11,T2_M11,T3_M11,T4_M11,T5_M11,U1_M11,ZSPAN_M11,X0_M11,X2_M11,X1_M11
2024-03-04 19:00:00,SystemResetWarning,0822.1,5.00,000.00,019.0,018.3,000.0,027.4,020.6,12.6,0000.0,0008.65,0001.52,0000.74
2024-03-04 19:01:00,SystemResetWarning,0822.1,5.00,000.00,019.0,018.3,000.0,027.4,020.6,13.0,0000.0,0008.64,0001.55,0000.75
2024-03-04 19:02:00,SystemResetWarning,0822.1,5.00,000.00,019.0,018.3,000.0,027.4,020.7,12.8,0000.0,0008.25,0001.52,0000.76
2024-03-04 19:03:00,SystemResetWarning,0822.1,5.00,000.00,019.0,018.3,000.0,027.4,020.7,12.7,0000.0,0007.63,0001.53,0000.77
2024-03-04 19:04:00,SystemResetWarning,0822.2,5.00,000.00,019.0,018.3,000.0,027.4,020.7,12.8,0000.0,0007.86,0001.53,0000.79
2024-03-04 19:05:00,SystemResetWarning,0822.2,5.00,000.00,019.0,018.3,000.0,027.4,020.7,12.7,0000.0,0007.61,0001.54,0000.80
2024-03-04 19:06:00,SystemResetWarning,0822.1,5.00,000.00,019.0,018.3,000.0,027.4,020.7,12.7,0000.0,0007.44,0001.52,0000.82
2024-03-04 19:07:00,SystemResetWarning,0822.1,5.00,000.00,019.0,018.3,000.0,027.4,020.7,12.8,0000.0,0007.08,0001.55,0000.85
2024-03-04 19:08:00,SystemResetWarning,0822.1,5.00,000.00,019.0,018.3,000.0,027.4,020.7,12.8,0000.0,0006.88,0001.59,0000.87
2024-03-04 19:09:00,SystemResetWarning,0822.0,5.00,000.00,019.0,018.3,000.0,027.4,020.6,12.7,0000.0,0005.92,0001.60,0000.87
2024-03-04 19:10:00,SystemResetWarning,0822.0,5.00,000.00,019.0,018.3,000.0,027.4,020.6,13.0,0000.0,0005.55,0001.59,0000.87
2024-03-04 19:11:00,SystemResetWarning,0822.0,5.00,000.00,019.0,018.3,000.0,027.4,020.6,12.7,0000.0,0005.47,0001.54,0000.88
2024-03-04 19:12:00,SystemResetWarning,0821.9,4.99,000.00,019.0,018.2,000.0,027.4,020.6,12.8,0000.0,0005.44,0001.52,0000.88
2024-03-04 19:13:00,SystemResetWarning,0821.9,5.00,000.00,019.0,018.2,000.0,027.4,020.6,12.8,0000.0,0005.75,0001.59,0000.89
2024-03-04 19:14:00,SystemResetWarning,0822.0,5.01,000.00,018.9,018.2,000.0,027.4,020.6,12.6,0000.0,0006.56,0001.62,0000.92
2024-03-04 19:15:00,SystemResetWarning,0822.0,4.99,000.00,018.9,018.2,000.0,027.4,020.6,12.6,0000.0,0005.72,0001.71,0000.95
2024-03-04 19:16:00,SystemResetWarning,0822.0,4.99,000.00,018.9,018.2,000.0,027.4,020.6,12.8,0000.0,0005.96,0001.74,0000.97
2024-03-04 19:17:00,SystemResetWarning,0822.0,5.01,000.00,018.9,018.2,000.0,027.4,020.6,12.8,0000.0,0006.83,0001.75,0001.00
2024-03-04 19:18:00,SystemResetWarning,0822.0,5.01,000.00,018.9,018.2,000.0,027.4,020.6,12.9,0000.0,0006.66,0001.77,0001.02
2024-03-04 19:19:00,SystemResetWarning,0821.9,5.01,000.00,018.9,018.2,000.0,027.4,020.6,12.8,0000.0,0006.61,0001.76,0001.04
2024-03-04 19:20:00,SystemResetWarning,0822.0,5.00,000.00,018.9,018.2,000.0,027.4,020.6,12.8,0000.0,0006.82,0001.81,0001.07
2024-03-04 19:21:00,SystemResetWarning,0821.9,4.99,000.00,018.9,018.2,000.0,027.4,020.6,13.0,0000.0,0006.76,0001.81,0001.08
2024-03-04 19:22:00,SystemResetWarning,0821.9,4.99,000.00,018.9,018.2,000.0,027.4,020.6,12.9,0000.0,0006.82,0001.86,0001.09
2024-03-04 19:23:00,SystemResetWarning,0822.0,5.00,000.00,018.9,018.3,000.0,027.4,020.6,13.2,0000.0,0006.73,0001.84,0001.10
2024-03-04 19:24:00,SystemResetWarning,0821.9,5.01,000.00,018.9,018.3,000.0,027.4,020.6,12.9,0000.0,0006.52,0001.80,0001.10
2024-03-04 19:25:00,SystemResetWarning,0821.9,5.00,000.00,018.9,018.3,000.0,027.4,020.6,13.0,0000.0,0005.21,0001.76,0001.10
2024-03-04 19:26:00,SystemResetWarning,0822.0,5.00,000.00,018.9,018.3,000.0,027.4,020.6,13.1,0000.0,0005.06,0001.72,0001.08
2024-03-04 19:27:00,SystemResetWarning,0821.9,5.00,000.00,018.9,018.3,000.0,027.4,020.6,13.0,0000.0,0005.83,0001.72,0001.08
2024-03-04 19:28:00,SystemResetWarning,0821.9,4.99,000.00,018.9,018.3,000.0,027.4,020.6,13.1,0000.0,0004.90,0001.72,0001.08
2024-03-04 19:29:00,SystemResetWarning,0821.8,5.00,000.00,018.9,018.3,000.0,027.4,020.6,13.1,0000.0,0005.48,0001.74,0001.08
2024-03-04 19:30:00,SystemResetWarning,0821.9,5.00,000.00,018.9,018.3,000.0,027.4,020.6,13.1,0000.0,0006.07,0001.76,0001.07
2024-03-04 19:31:00,SystemResetWarning,0821.9,4.99,000.00,018.9,018.3,000.0,027.4,020.6,13.1,0000.0,0006.26,0001.78,0001.07
2024-03-04 19:32:00,SystemResetWarning,0821.9,5.00,000.00,018.9,018.3,000.0,027.4,020.7,13.1,0000.0,0006.44,0001.79,0001.07
2024-03-04 19:33:00,SystemResetWarning,0821.9,4.99,000.00,018.9,018.3,000.0,027.4,020.6,13.4,0000.0,0006.75,0001.77,0001.08
2024-03-04 19:34:00,SystemResetWarning,0821.9,5.00,000.00,018.9,018.3,000.0,027.4,020.6,13.4,0000.0,0006.94,0001.77,0001.09
2024-03-04 19:35:00,SystemResetWarning,0821.9,5.01,000.00,018.9,018.3,000.0,027.4,020.6,13.3,0000.0,0007.11,0001.82,0001.10
2024-03-04 19:36:00,SystemResetWarning,0821.9,5.01,000.00,018.9,018.3,000.0,027.4,020.6,13.2,0000.0,0007.07,0001.82,0001.11
2024-03-04 19:37:00,SystemResetWarning,0821.9,5.00,000.00,018.9,018.3,000.0,027.4,020.7,13.3,0000.0,0006.99,0001.85,0001.13
2024-03-04 19:38:00,SystemResetWarning,0821.9,5.00,000.00,018.9,018.3,000.0,027.4,020.7,13.2,0000.0,0006.47,0001.88,0001.15
2024-03-04 19:39:00,SystemResetWarning,0821.8,5.00,000.00,018.9,018.3,000.0,027.4,020.6,13.1,0000.0,0006.18,0001.93,0001.16
2024-03-04 19:40:00,SystemResetWarning,0821.8,4.99,000.00,018.9,018.3,000.0,027.4,020.7,13.2,0000.0,0007.21,0001.97,0001.17
2024-03-04 19:41:00,SystemResetWarning,0821.9,5.00,000.00,019.0,018.3,000.0,027.4,020.6,13.3,0000.0,0007.54,0002.04,0001.19
2024-03-04 19:42:00,SystemResetWarning,0821.9,5.02,000.00,019.0,018.3,000.0,027.4,020.7,13.2,0000.0,0007.90,0002.03,0001.21
2024-03-04 19:43:00,SystemResetWarning,0821.8,5.01,000.00,019.0,018.3,000.0,027.4,020.7,13.1,0000.0,0007.94,0002.13,0001.23
2024-03-04 19:44:00,SystemResetWarning,0821.8,5.00,000.00,019.0,018.3,000.0,027.4,020.7,13.1,0000.0,0008.12,0002.19,0001.24
2024-03-04 19:45:00,SystemResetWarning,0821.8,5.00,000.00,019.0,018.3,000.0,027.4,020.7,13.0,0000.0,0008.06,0002.22,0001.26
2024-03-04 19:46:00,SystemResetWarning,0821.8,5.00,000.00,019.0,018.3,000.0,027.4,020.7,13.0,0000.0,0008.11,0002.28,0001.28
2024-03-04 19:47:00,SystemResetWarning,0821.7,5.00,000.00,019.0,018.3,000.0,027.4,020.7,13.2,0000.0,0008.30,0002.31,0001.30
2024-03-04 19:48:00,SystemResetWarning,0821.7,5.00,000.00,019.0,018.4,000.0,027.4,020.7,13.2,0000.0,0008.94,0002.41,0001.32
2024-03-04 19:49:00,SystemResetWarning,0821.7,4.99,000.00,019.0,018.4,000.0,027.4,020.7,13.2,0000.0,0008.87,0002.36,0001.31
2024-03-04 19:50:00,SystemResetWarning,0821.7,5.00,000.00,019.0,018.4,000.0,027.4,020.7,13.5,0000.0,0009.05,0002.38,0001.32
2024-03-04 19:51:00,SystemResetWarning,0821.8,5.01,000.00,019.0,018.4,000.0,027.4,020.7,13.5,0000.0,0008.25,0002.36,0001.33
2024-03-04 19:52:00,SystemResetWarning,0821.8,5.01,000.00,019.0,018.4,000.0,027.4,020.7,13.6,0000.0,0008.24,0002.36,0001.33
2024-03-04 19:53:00,SystemResetWarning,0821.8,5.00,000.00,019.0,018.4,000.0,027.4,020.7,13.7,0000.0,0008.43,0002.46,0001.34
2024-03-04 19:54:00,SystemResetWarning,0821.8,4.99,000.00,019.1,018.4,000.0,027.4,020.8,13.9,0000.0,0009.01,0002.43,0001.34
2024-03-04 19:55:00,SystemResetWarning,0821.8,4.99,000.00,019.1,018.4,000.0,027.4,020.8,13.5,0000.0,0009.03,0002.41,0001.35
2024-03-04 19:56:00,SystemResetWarning,0821.7,5.01,000.00,019.1,018.5,000.0,027.4,020.8,13.4,0000.0,0009.18,0002.38,0001.34
2024-03-04 19:57:00,SystemResetWarning,0821.6,5.01,000.00,019.1,018.5,000.0,027.4,020.8,13.3,0000.0,0009.19,0002.32,0001.32
2024-03-04 19:58:00,SystemResetWarning,0821.7,4.99,000.00,019.1,018.5,000.0,027.4,020.8,13.3,0000.0,0010.06,0002.28,0001.31
2024-03-04 19:59:00,SystemResetWarning,0821.6,4.99,000.00,019.1,018.5,000.0,027.4,020.8,13.5,0000.0,0009.69,0002.28,0001.31
